This demonstration page uses our WeatherBlox Daily Observations layout. Learn more.

Left ArrowRight Arrow

44.89941, -97.11507

Hourly Observations for April 2, 2016

Temp ( °F °C ) Dew Point ( °F °C ) Humidity (%) Winds ( mph kmh ) Pressure ( in mb ) Visibility ( mi km ) Precip ( " mm )
12:53 am 00:53 Mostly Cloudy 40 4.4 25 -3.9 55 55 W 17 28 29.76 1008 10 16 0.00 0.00
1:53 am 01:53 Partly Cloudy 41 5 27 -2.8 57 57 NW 23 37 29.79 1009 10 16 0.00 0.00
2:53 am 02:53 Mostly Cloudy 38 3.3 19 -7.2 46 46 NNW 24 39 29.82 1010 10 16 0.00 0.00
3:53 am 03:53 Clear 32 0 24 -4.4 73 73 N 20 31 29.86 1011 10 16 0.00 0.00
4:53 am 04:53 Clear 28 -2.2 18 -7.8 66 66 NNW 16 26 29.90 1013 10 16 0.00 0.00
5:53 am 05:53 Clear 28 -2.2 12 -11.1 51 51 NNW 21 33 29.93 1013 10 16 0.00 0.00
6:53 am 06:53 Clear 26 -3.3 10 -12.2 51 51 NNW 21 33 29.96 1015 10 16 0.00 0.00
7:53 am 07:53 Sunny 26 -3.3 11 -11.7 53 53 NNW 20 31 30.00 1016 10 16 0.00 0.00
8:53 am 08:53 Sunny 27 -2.8 12 -11.1 53 53 NNW 21 33 30.04 1017 10 16 0.00 0.00
9:53 am 09:53 Sunny 29 -1.7 11 -11.7 47 47 NW 22 35 30.06 1018 10 16 0.00 0.00
10:53 am 10:53 Sunny 31 -0.6 9 -12.8 40 40 N 23 37 30.09 1019 10 16 0.00 0.00
11:53 am 11:53 Mostly Cloudy 34 1.1 9 -12.8 35 35 NNW 20 31 30.08 1019 10 16 0.00 0.00
12:53 pm 12:53 Sunny 36 2.2 3 -16.1 25 25 NNW 18 30 30.08 1019 10 16 0.00 0.00
1:53 pm 13:53 Sunny 39 3.9 2 -16.7 21 21 NNW 17 28 30.08 1019 10 16 0.00 0.00
2:53 pm 14:53 Sunny 40 4.4 5 -15 23 23 NNW 14 22 30.07 1018 10 16 0.00 0.00
3:53 pm 15:53 Sunny 41 5 8 -13.3 25 25 NNW 8 13 30.04 1017 10 16 0.00 0.00
4:53 pm 16:53 Sunny 42 5.6 12 -11.1 29 29 VRB 6 9 30.02 1017 10 16 0.00 0.00
5:53 pm 17:53 Sunny 43 6.1 15 -9.4 32 32 Calm 30.00 1016 10 16 0.00 0.00
6:53 pm 18:53 Sunny 45 7.2 20 -6.7 37 37 SSW 9 15 29.96 1015 10 16 0.00 0.00
7:53 pm 19:53 Sunny 42 5.6 24 -4.4 49 49 S 8 13 29.93 1014 10 16 0.00 0.00
8:53 pm 20:53 Clear 40 4.4 26 -3.3 58 58 S 12 19 29.90 1012 10 16 0.00 0.00
9:53 pm 21:53 Clear 40 4.4 27 -2.8 60 60 S 13 20 29.85 1011 10 16 0.00 0.00
10:53 pm 22:53 Clear 38 3.3 29 -1.7 70 70 S 13 20 29.83 1010 10 16 0.00 0.00
11:53 pm 23:53 Clear 39 3.9 31 -0.6 73 73 S 12 19 29.79 1009 10 16 0.00 0.00

Powered by AerisWeather